Location: Lucca
(43.8330°N, 10.4830°E)
Time: 11:41:11
(UTC+02:00)

ISS - Visible Passes

Search period start: 11 May 2021 00:00
Search period end: 21 May 2021 00:00
Orbit: 418 x 421 km, 51.6° (Epoch: 11 May)

Date Brightness Start Highest point End Pass type
(mag) Time Alt. Az. Time Alt. Az. Time Alt. Az.
11 May -1.3 02:04:21 23° NNE 02:04:21 23° NNE 02:06:25 10° NE visible
11 May -1.2 03:38:21 10° NW 03:41:06 22° N 03:43:49 10° ENE visible
11 May -2.9 05:15:06 10° NW 05:18:25 53° NNE 05:21:45 10° ESE visible
12 May -0.8 01:18:16 15° NE 01:18:16 15° NE 01:19:01 10° NE visible
12 May -1.2 02:51:12 12° NW 02:53:27 21° N 02:56:08 10° NE visible
12 May -2.2 04:27:42 10° NW 04:30:55 38° NNE 04:34:06 10° E visible
13 May -1.2 02:05:02 20° NNW 02:05:49 21° N 02:08:30 10° NE visible
13 May -1.7 03:40:19 10° NW 03:43:21 30° NNE 03:46:23 10° E visible
13 May -3.7 05:17:01 10° WNW 05:20:22 63° SW 05:23:42 10° SE visible
14 May -1.2 01:18:38 22° N 01:18:38 22° N 01:20:57 10° NE visible
14 May -1.4 02:52:54 10° NW 02:55:45 25° NNE 02:58:38 10° ENE visible
14 May -3.7 04:29:34 10° WNW 04:32:57 82° NNE 04:36:19 10° ESE visible
14 May -1.9 21:15:31 10° SSE 21:17:05 13° SE 21:18:40 10° ESE visible
14 May -3.9 22:50:04 10° WSW 22:53:26 89° NW 22:55:37 20° ENE visible
15 May -1.5 00:27:41 10° WNW 00:30:34 26° NNW 00:33:29 10° NE visible
15 May -1.2 02:05:25 10° NW 02:08:09 22° N 02:10:53 10° ENE visible
15 May -3.0 03:42:09 10° NW 03:45:28 54° NNE 03:48:48 10° ESE visible
15 May -3.8 22:02:44 10° SW 22:06:01 56° SE 22:09:20 10° ENE visible
15 May -1.9 23:39:57 10° W 23:43:00 31° NNW 23:46:04 10° NE visible
16 May -1.1 01:17:51 10° NW 01:20:30 21° N 01:23:11 10° NE visible
16 May -2.3 02:54:46 10° NW 02:57:58 38° NNE 03:01:09 10° E visible
16 May -3.3 04:31:37 10° WNW 04:34:46 37° SW 04:37:55 10° SSE visible
16 May -3.1 21:15:37 10° SSW 21:18:40 34° SE 21:21:45 10° ENE visible
16 May -2.4 22:52:14 10° W 22:55:26 41° NNW 22:58:40 10° NE visible
17 May -1.1 00:30:12 10° NW 00:32:53 21° N 00:35:33 10° NE visible
17 May -1.8 02:07:22 10° NW 02:10:24 30° NNE 02:13:26 10° E visible
17 May -3.9 03:44:04 10° WNW 03:47:24 62° SW 03:50:45 10° SE visible
17 May -3.1 22:04:37 10° WSW 22:07:56 58° NNW 22:11:17 10° NE visible
17 May -1.2 23:42:29 10° WNW 23:45:14 23° N 23:47:59 10° NE visible
18 May -1.5 01:19:56 10° NW 01:22:48 25° NNE 01:22:56 25° NNE visible
18 May -3.7 21:17:06 10° WSW 21:20:28 89° NNW 21:23:50 10° ENE visible
18 May -1.4 22:54:44 10° WNW 22:57:37 26° NNW 23:00:31 10° NE visible
19 May -1.2 00:32:27 10° NW 00:35:11 22° N 00:36:31 18° NE visible
19 May -0.8 02:09:11 10° NW 02:09:27 12° NW 02:09:27 12° NW visible
19 May -1.8 22:06:58 10° W 22:10:01 31° NNW 22:13:05 10° NE visible
19 May -1.2 23:44:53 10° NW 23:47:32 21° N 23:50:12 10° NE visible
20 May -1.4 01:21:47 10° NW 01:23:16 22° NW 01:23:16 22° NW visible
20 May -2.3 21:19:16 10° W 21:22:27 40° NNW 21:25:41 10° NE visible
20 May -1.2 22:57:14 10° NW 22:59:53 21° N 23:02:33 10° NE visible
